[[{"header":{"parameterUnit":"m.s-1","parameterCategory":1,"la1":30.2991,"la2":30.254,"lo1":-89.0895,"lo2":-89.0444,"dy":0.0017,"dx":0.0017,"nx":28,"ny":28,"refTime":"2023-08-20T03:00:00:Z","depth":0,"parameterNumber":2,"parameterNumberName":"U-component_of_WINDS"},"data":[0,0,0,0,0,0,0,0,0,0,0,0,0,0,0,0,0,0,0,0,0,0,0,0,0,0,0,0,0,0,0,0,0,0,0,0,0,0,0,0,0,0,0,0,0,0,0,0,0,0,0,0,0,0,0,0,0,0,-6.5845,-6.5845,0,-6.5849,-6.5849,-6.5849,-6.5731,-6.5728,-6.5725,-6.5722,-6.5726,-6.5729,-6.5732,0,0,0,0,0,0,0,0,0,0,0,0,0,-6.5737,-6.5739,-6.5845,-6.5845,-6.5845,-6.5849,-6.5849,-6.5849,-6.5732,-6.5728,-6.5724,-6.572,-6.5725,-6.5728,-6.5732,0,0,0,0,0,0,0,0,0,0,0,0,0,-6.5767,-6.574,-6.5845,-6.5787,-6.5782,-6.5849,-6.5849,-6.5849,-6.5732,-6.5728,-6.5723,-6.5719,-6.5724,-6.5728,-6.5733,-6.5855,0,0,-6.5747,-6.5749,0,0,0,0,0,0,0,0,-6.5765,-6.5771,-6.5795,-6.5791,-6.5785,-6.5785,-6.5812,-6.5851,-6.5734,-6.5751,-6.5722,-6.5716,-6.5749,-6.5751,-6.5763,-6.5856,-6.5856,-6.5747,-6.575,-6.5752,-6.5753,0,0,0,0,0,0,0,-6.5763,-6.577,-6.5846,-6.5796,-6.579,-6.5761,-6.576,-6.5819,-6.5777,-6.5749,-6.5741,-6.5743,-6.5746,-6.5758,-6.5762,-6.5856,-6.5747,-6.5751,-6.5754,-6.5756,-6.6052,-6.6057,0,0,0,0,0,0,-6.5769,-6.5769,-6.5846,-6.5847,-6.5763,-6.5767,-6.5766,-6.579,-6.5776,-6.5769,-6.5747,-6.5737,-6.5753,-6.5757,-6.5761,-6.5906,-6.5752,-6.5756,-6.5759,-6.6047,-6.6053,-6.6059,0,0,0,0,0,0,-6.5767,-6.5777,-6.5846,-6.5806,-6.5812,-6.5774,-6.5802,-6.5792,-6.5805,-6.5774,-6.5766,-6.5768,-6.5749,-6.5755,-6.5833,-6.5904,-6.5758,-6.5762,-6.6041,-6.6049,-6.6056,-6.6194,0,0,0,0,0,0,-6.5765,-6.5777,-6.5823,-6.5807,-6.5815,-6.5918,-6.5806,-6.5796,-6.5813,-6.5801,-6.5791,-6.5785,-6.5746,-6.5827,-6.5838,-6.5908,-6.5766,-6.6034,-6.6044,-6.6053,-6.6183,-6.6206,-6.6225,0,0,0,0,0,-6.5761,-6.5861,-6.5826,-6.5836,-6.5871,-6.5922,-6.5926,-6.5879,-6.5819,-6.5865,-6.5846,-6.5785,-6.5895,-6.5836,-6.5847,-6.592,-6.603,-6.6042,-6.6053,-6.6174,-6.6201,-6.6225,0,0,0,0,0,0,-6.5885,-6.5858,-6.5818,-6.5917,-6.5923,-6.5902,-6.5959,-6.591,-6.5933,-6.592,-6.5861,-6.586,-6.5949,-6.5941,-6.5877,-6.6039,-6.5952,-6.5966,-6.604,-6.6066,-6.6086,-6.6086,-6.577,0,0,0,0,0,-6.5924,-6.5968,-6.5942,-6.6031,-6.6036,-6.5998,-6.6018,-6.5981,-6.5985,-6.5987,-6.5973,-6.598,-6.6015,-6.604,-6.6071,-6.6182,-6.6179,-6.6237,-6.6258,-6.6275,-6.6289,-6.6349,-6.6375,-6.6097,-6.6096,-6.6096,0,0,-6.6005,-6.5995,-6.6026,-6.6056,-6.6056,-6.6103,-6.6,-6.6054,-6.6088,-6.5995,-6.6069,-6.6059,-6.6062,-6.6158,-6.6199,-6.6155,-6.6365,-6.629,-6.6304,-6.6308,-6.6363,-6.639,-6.6413,-6.6104,-6.6103,-6.6102,0,0,-6.6176,-6.6173,-6.6247,-6.6251,-6.6253,-6.6227,-6.6245,-6.6233,-6.6223,-6.6296,-6.6228,-6.6268,-6.633,-6.6336,-6.6347,-6.6524,-6.647,-6.6535,-6.6645,-6.6704,-6.6726,-6.6745,-6.6809,-6.6833,-6.6549,-6.6549,-6.6549,0,-6.6276,-6.6344,-6.6292,-6.6351,-6.6367,-6.6285,-6.6361,-6.6366,-6.6379,-6.6392,-6.6342,-6.642,-6.6417,-6.6513,-6.6557,-6.6568,-6.6588,-6.6536,-6.6727,-6.6746,-6.6763,-6.6823,-6.6847,-6.6557,-6.6556,-6.6555,-6.6555,0,-6.6467,-6.6516,-6.6576,-6.6591,-6.6613,-6.668,-6.664,-6.6668,-6.6631,-6.6611,-6.6687,-6.668,-6.6709,-6.6729,-6.6692,-6.6822,-6.6795,-6.6737,-6.6648,-6.6798,-6.6854,-6.6877,-6.6569,-6.6566,-6.6563,-6.6561,0,0,-6.6715,-6.6702,-6.6725,-6.6732,-6.673,-6.6767,-6.6831,-6.686,-6.6887,-6.6899,-6.6952,-6.7008,-6.6955,-6.6968,-6.6931,-6.6983,-6.7125,-6.6919,-6.6918,-6.6959,-6.727,-6.7314,-6.7341,-6.709,-6.7094,-6.7097,-6.727,0,-6.6882,-6.6991,-6.6947,-6.706,-6.7105,-6.703,-6.7086,-6.7091,-6.7075,-6.7111,-6.7092,-6.7134,-6.706,-6.7068,-6.7116,-6.7098,-6.7187,-6.7085,-6.714,-6.7142,-6.7142,-6.737,-6.7416,-6.7579,-6.7291,-6.7295,-6.7297,0,-6.7091,-6.7113,-6.7231,-6.7222,-6.724,-6.7291,-6.7315,-6.735,-6.7356,-6.734,-6.7356,-6.7308,-6.7372,-6.7284,-6.7371,-6.7303,-6.7323,-6.7318,-6.7323,-6.7327,-6.7229,-6.7381,-6.763,-6.7655,-6.7331,-6.7328,-6.7326,0,-6.7262,-6.732,-6.7399,-6.7407,-6.7399,-6.7437,-6.7436,-6.7436,-6.7457,-6.7478,-6.7492,-6.752,-6.7536,-6.756,-6.7522,-6.7461,-6.7616,-6.7524,-6.7605,-6.7607,-6.7641,-6.764,-6.7898,-6.7654,-6.7653,-6.7653,-6.7652,0,-6.7453,-6.7529,-6.7476,-6.7524,-6.7607,-6.7557,-6.764,-6.763,-6.7632,-6.7678,-6.7614,-6.7659,-6.7605,-6.7645,-6.7616,-6.7694,-6.7701,-6.7691,-6.7683,-6.7697,-6.7699,-6.771,-6.7698,-6.7659,-6.7658,-6.7657,-6.7655,0,-6.7658,-6.7625,-6.7706,-6.7693,-6.7691,-6.7753,-6.7742,-6.7787,-6.7766,-6.7825,-6.7836,-6.7804,-6.7848,-6.7813,-6.7855,-6.7835,-6.7939,-6.7914,-6.7938,-6.7931,-6.8015,-6.8008,-6.829,-6.8325,-6.8058,-6.806,-6.8062,0,-6.7782,-6.7839,-6.7832,-6.7858,-6.7861,-6.7904,-6.7926,-6.7879,-6.7904,-6.7916,-6.796,-6.7998,-6.8026,-6.81,-6.8081,-6.8114,-6.809,-6.8186,-6.8094,-6.8108,-6.8093,-6.809,-6.8096,-6.8205,-6.8208,-6.8211,-6.8213,0,-6.8007,-6.7989,-6.8022,-6.8051,-6.8079,-6.8099,-6.8115,-6.814,-6.8093,-6.8124,-6.8169,-6.8191,-6.8235,-6.8275,-6.8302,-6.83,-6.825,-6.8242,-6.8263,-6.8279,-6.8291,-6.8287,-6.799,-6.8236,-6.8234,-6.8232,-6.8231,-6.823,-6.8176,-6.8223,-6.8227,-6.8267,-6.8274,-6.829,-6.8332,-6.8318,-6.8354,-6.8386,-6.8357,-6.8411,-6.8416,-6.8447,-6.8453,-6.8495,-6.8455,-6.8484,-6.8492,-6.85,-6.8513,-6.8284,-6.8499,-6.8498,-6.8498,-6.8497,-6.8497,0,-6.8398,-6.8397,-6.8435,-6.8459,-6.8491,-6.8441,-6.8456,-6.8486,-6.8534,-6.8544,-6.8574,-6.8626,-6.8665,-6.865,-6.8684,-6.8721,-6.8699,-6.8732,-6.8729,-6.873,-6.8546,-6.8525,-6.8749,-6.8749,-6.8749,-6.8749,-6.8749,-6.8749,-6.8518,-6.8596,-6.8579,-6.866,-6.8658,-6.8711,-6.8724,-6.874,-6.8747,-6.8808,-6.884,-6.883,-6.8831,-6.8865,-6.8899,-6.8894,-6.891,-6.8951,-6.8938,-6.8767,-6.8742,-6.8718,-6.8699,-6.8955,-6.8955,-6.9118,-6.9119,-6.9121]},{"header":{"parameterUnit":"m.s-1","parameterCategory":1,"la1":30.2991,"la2":30.254,"lo1":-89.0895,"lo2":-89.0444,"dy":0.0017,"dx":0.0017,"nx":28,"ny":28,"refTime":"2023-08-20T03:00:00:Z","depth":0,"parameterNumber":3,"parameterNumberName":"V-component_of_WINDS"},"data":[0,0,0,0,0,0,0,0,0,0,0,0,0,0,0,0,0,0,0,0,0,0,0,0,0,0,0,0,0,0,0,0,0,0,0,0,0,0,0,0,0,0,0,0,0,0,0,0,0,0,0,0,0,0,0,0,0,0,-0.6444,-0.6444,0,-0.6412,-0.6411,-0.6411,-0.6361,-0.636,-0.6359,-0.6358,-0.6326,-0.6326,-0.6326,0,0,0,0,0,0,0,0,0,0,0,0,0,-0.6461,-0.6461,-0.6444,-0.6444,-0.6443,-0.6412,-0.6411,-0.6411,-0.6361,-0.636,-0.6359,-0.6358,-0.6326,-0.6326,-0.6326,0,0,0,0,0,0,0,0,0,0,0,0,0,-0.6444,-0.6461,-0.6444,-0.6414,-0.6411,-0.6412,-0.6411,-0.6411,-0.6361,-0.636,-0.6358,-0.6357,-0.6326,-0.6326,-0.6326,-0.6354,0,0,-0.6326,-0.6326,0,0,0,0,0,0,0,0,-0.6445,-0.6443,-0.6419,-0.6416,-0.6413,-0.6389,-0.6406,-0.6392,-0.6361,-0.638,-0.6358,-0.6356,-0.6348,-0.6346,-0.6343,-0.6352,-0.6351,-0.6326,-0.6326,-0.6326,-0.6326,0,0,0,0,0,0,0,-0.6446,-0.6445,-0.6431,-0.6419,-0.6415,-0.6402,-0.6398,-0.6403,-0.6372,-0.6379,-0.6375,-0.6372,-0.6346,-0.6343,-0.6342,-0.635,-0.6326,-0.6326,-0.6326,-0.6326,-0.6378,-0.6379,0,0,0,0,0,0,-0.6452,-0.6446,-0.6432,-0.643,-0.6426,-0.6403,-0.6399,-0.6398,-0.6372,-0.6367,-0.6373,-0.6369,-0.6344,-0.6342,-0.6341,-0.637,-0.6326,-0.6326,-0.6326,-0.6376,-0.6378,-0.6379,0,0,0,0,0,0,-0.6452,-0.6451,-0.6434,-0.6437,-0.6434,-0.6404,-0.6404,-0.6398,-0.6395,-0.6368,-0.6362,-0.6376,-0.6343,-0.6341,-0.635,-0.6368,-0.6326,-0.6326,-0.6375,-0.6377,-0.6379,-0.6429,0,0,0,0,0,0,-0.6453,-0.6452,-0.6462,-0.6438,-0.6434,-0.6444,-0.6405,-0.6398,-0.6395,-0.639,-0.6369,-0.6364,-0.6342,-0.6351,-0.635,-0.6367,-0.6326,-0.6373,-0.6376,-0.6378,-0.6426,-0.6433,-0.6439,0,0,0,0,0,-0.6454,-0.6478,-0.6463,-0.6461,-0.6446,-0.6445,-0.6443,-0.6416,-0.6397,-0.6407,-0.6389,-0.6365,-0.6366,-0.6352,-0.6351,-0.6369,-0.6372,-0.6375,-0.6378,-0.6423,-0.6431,-0.6438,0,0,0,0,0,0,-0.6506,-0.6474,-0.6457,-0.6474,-0.6462,-0.6436,-0.6448,-0.6426,-0.642,-0.6416,-0.6384,-0.638,-0.6393,-0.6382,-0.6366,-0.6393,-0.6365,-0.6368,-0.64,-0.6407,-0.6414,-0.6416,-0.6326,0,0,0,0,0,-0.652,-0.6521,-0.6493,-0.6511,-0.6506,-0.6478,-0.6477,-0.6457,-0.6444,-0.6439,-0.6422,-0.641,-0.6408,-0.6407,-0.6403,-0.6424,-0.6418,-0.6435,-0.6442,-0.6447,-0.645,-0.6459,-0.6466,-0.639,-0.639,-0.6389,0,0,-0.6548,-0.653,-0.6534,-0.6521,-0.651,-0.6512,-0.6475,-0.6479,-0.648,-0.644,-0.6447,-0.6434,-0.6419,-0.6433,-0.6439,-0.6424,-0.647,-0.6451,-0.6456,-0.6456,-0.6462,-0.647,-0.6476,-0.6392,-0.6391,-0.6391,0,0,-0.6599,-0.6587,-0.6599,-0.6588,-0.6571,-0.6552,-0.6555,-0.6532,-0.6522,-0.6528,-0.6498,-0.6499,-0.6496,-0.6486,-0.648,-0.6526,-0.6503,-0.6526,-0.6559,-0.6568,-0.6574,-0.6579,-0.6594,-0.66,-0.6529,-0.6529,-0.6529,0,-0.6636,-0.6638,-0.6609,-0.6614,-0.6609,-0.6572,-0.6584,-0.6575,-0.6558,-0.6555,-0.6539,-0.6533,-0.652,-0.6531,-0.6542,-0.654,-0.6541,-0.6528,-0.6575,-0.658,-0.6585,-0.6599,-0.6605,-0.6532,-0.6531,-0.6531,-0.6531,0,-0.6684,-0.6685,-0.6697,-0.6681,-0.6677,-0.6686,-0.6658,-0.6657,-0.6638,-0.6621,-0.6627,-0.661,-0.6602,-0.6603,-0.6584,-0.6611,-0.6602,-0.6581,-0.6553,-0.6595,-0.6608,-0.6613,-0.6536,-0.6535,-0.6534,-0.6533,0,0,-0.6768,-0.6734,-0.6739,-0.673,-0.6708,-0.6709,-0.6715,-0.6707,-0.6706,-0.6696,-0.67,-0.6697,-0.6677,-0.6671,-0.6651,-0.6658,-0.6694,-0.6636,-0.6635,-0.6647,-0.6721,-0.6736,-0.6743,-0.6679,-0.668,-0.668,-0.6722,0,-0.6815,-0.6824,-0.6797,-0.6813,-0.6814,-0.6778,-0.6783,-0.677,-0.6754,-0.6752,-0.6733,-0.6732,-0.6706,-0.6701,-0.6707,-0.6689,-0.6709,-0.6685,-0.6682,-0.6682,-0.6687,-0.675,-0.6767,-0.6807,-0.6727,-0.6728,-0.6728,0,-0.6871,-0.6862,-0.6878,-0.6853,-0.6852,-0.6858,-0.6847,-0.6845,-0.6829,-0.6816,-0.6808,-0.6784,-0.6789,-0.6761,-0.6766,-0.6751,-0.6748,-0.6738,-0.6739,-0.6737,-0.6708,-0.675,-0.6819,-0.6825,-0.6736,-0.6735,-0.6735,0,-0.693,-0.6922,-0.693,-0.6924,-0.6895,-0.69,-0.6888,-0.6871,-0.6866,-0.6857,-0.6853,-0.6845,-0.684,-0.6833,-0.6807,-0.679,-0.6814,-0.6785,-0.6803,-0.6804,-0.681,-0.681,-0.688,-0.6809,-0.6809,-0.6809,-0.6809,0,-0.6985,-0.6996,-0.6956,-0.6961,-0.6971,-0.694,-0.6951,-0.6936,-0.692,-0.6921,-0.689,-0.6891,-0.6857,-0.6855,-0.6834,-0.684,-0.6839,-0.6828,-0.6823,-0.6831,-0.6832,-0.6828,-0.6824,-0.6811,-0.681,-0.681,-0.681,0,-0.7053,-0.7027,-0.7033,-0.7005,-0.6998,-0.7007,-0.6983,-0.6986,-0.6967,-0.6968,-0.6967,-0.6937,-0.6932,-0.6905,-0.6895,-0.6881,-0.6894,-0.6884,-0.69,-0.6896,-0.6915,-0.6914,-0.6984,-0.6991,-0.6918,-0.6918,-0.6919,0,-0.7089,-0.7097,-0.7069,-0.7067,-0.7057,-0.7054,-0.7049,-0.7018,-0.7014,-0.6995,-0.7,-0.6993,-0.6985,-0.6979,-0.6957,-0.6948,-0.6936,-0.6962,-0.6935,-0.6942,-0.6935,-0.6935,-0.6935,-0.6967,-0.6968,-0.6969,-0.697,0,-0.7156,-0.7143,-0.7137,-0.7126,-0.7121,-0.7111,-0.7099,-0.7099,-0.7065,-0.7062,-0.7056,-0.705,-0.7039,-0.7031,-0.7018,-0.7006,-0.6982,-0.6978,-0.6982,-0.699,-0.6999,-0.6993,-0.6915,-0.6977,-0.6976,-0.6976,-0.6975,-0.6975,-0.7209,-0.7213,-0.7194,-0.7188,-0.7175,-0.7165,-0.7166,-0.7146,-0.7141,-0.7129,-0.7111,-0.7107,-0.7089,-0.7069,-0.7059,-0.7055,-0.7041,-0.7047,-0.7048,-0.705,-0.7053,-0.7,-0.7053,-0.7052,-0.7052,-0.7052,-0.7052,0,-0.7274,-0.7259,-0.7254,-0.7238,-0.7233,-0.721,-0.7195,-0.7193,-0.719,-0.7175,-0.7167,-0.716,-0.7152,-0.7129,-0.7118,-0.712,-0.7109,-0.7118,-0.7118,-0.7115,-0.7067,-0.7064,-0.7128,-0.7128,-0.7128,-0.7128,-0.7128,-0.7128,-0.7307,-0.7312,-0.7296,-0.7294,-0.7279,-0.7275,-0.7269,-0.7258,-0.7246,-0.7239,-0.7232,-0.7217,-0.7198,-0.7185,-0.7177,-0.717,-0.7168,-0.7181,-0.717,-0.7126,-0.7119,-0.7112,-0.7109,-0.7181,-0.7181,-0.7218,-0.7219,-0.7219]}]]